Wind_Speed
27 27 26 25 24 23 23 22 21 21 21 21 20 19 19 18 17 17 17 16 15 15 14 13 12 12 12 12 12 12 12 12 12 12 12 12 13 14 14 15 16 17 18 18 18 17 17 17 18 19 20 21 21 22 23 24 26 28 27 23 19 19 19 18 18 18 18 19 20 21 22 24 25 24 22 21 23 25 26 25 25 26 26 27 26
27 27 27 26 25 24 24 22 22 21 22 21 21 20 20 19 18 18 18 17 16 16 16 15 14 13 13 13 13 13 13 13 13 13 13 13 14 14 15 15 15 16 17 18 18 18 18 17 18 19 20 21 21 22 22 23 24 26 27 25 21 18 18 18 17 17 17 18 19 20 21 22 23 23 20 19 20 24 27 27 26 27 28 27 26
25 25 25 25 25 24 24 23 22 22 22 22 22 22 21 20 20 19 18 18 17 17 16 16 15 14 14 14 14 14 14 13 13 14 14 14 14 15 16 16 16 16 17 17 18 19 19 18 18 19 20 21 21 21 22 22 22 24 26 26 23 19 17 17 17 17 17 17 17 19 20 21 21 22 20 17 16 20 25 28 28 28 29 29 26
25 25 25 25 24 24 24 24 23 23 23 23 22 23 22 21 21 20 19 19 18 18 17 17 16 16 16 16 16 16 15 14 14 14 14 15 15 16 16 17 17 17 17 17 18 18 19 19 19 19 20 21 21 21 21 21 21 22 24 25 24 21 18 16 16 16 17 17 17 18 19 21 21 20 19 16 14 15 19 25 29 29 30 31 29
24 25 25 25 24 24 24 24 24 24 24 23 23 23 23 22 22 21 20 20 20 19 19 18 18 17 18 18 18 18 16 15 15 15 15 16 16 17 17 18 18 18 18 18 18 18 19 20 20 20 20 21 21 21 21 21 21 21 22 23 23 22 19 17 16 16 16 17 18 18 19 21 21 19 17 15 13 14 16 21 26 28 28 29 28
24 24 24 24 24 24 24 24 25 25 24 23 22 23 23 23 23 22 22 22 21 21 21 20 20 19 20 20 20 20 18 17 16 16 16 17 17 18 18 19 19 20 20 20 19 19 20 20 21 21 21 21 22 21 21 20 20 20 20 21 22 22 20 18 16 15 16 17 17 18 19 20 20 20 18 16 15 14 15 19 23 25 27 28 28
24 24 23 23 24 24 25 25 25 24 24 22 21 22 23 24 24 23 23 23 23 23 23 22 22 22 23 23 23 22 21 19 18 18 18 18 19 19 20 20 21 21 21 21 21 21 21 21 22 22 22 22 22 22 21 21 20 19 19 19 20 21 20 19 17 16 16 16 17 18 18 19 20 20 20 19 18 17 16 18 21 21 23 25 26
25 24 24 24 24 24 24 24 23 23 23 22 21 22 23 24 24 24 25 25 25 24 25 24 24 25 25 26 25 24 23 22 20 20 20 21 21 21 21 22 22 22 23 23 23 23 23 22 23 23 23 23 23 22 22 21 20 19 19 18 19 19 19 19 18 17 16 16 17 18 19 19 19 20 19 19 19 18 17 17 18 18 19 21 23
27 26 26 26 25 24 23 22 22 23 23 23 22 23 24 25 25 25 26 26 26 26 26 26 26 27 27 27 27 26 26 25 23 23 23 23 23 23 23 23 24 24 24 24 25 25 25 25 24 24 24 24 24 23 23 22 21 20 19 18 18 18 18 18 18 17 17 17 18 19 19 20 20 20 20 19 19 18 18 17 17 17 18 20 22
28 28 28 28 26 25 23 22 22 22 23 23 24 24 24 25 26 26 27 27 27 27 27 28 28 28 28 28 28 28 27 27 26 26 27 27 26 26 25 25 26 26 26 26 27 27 27 27 26 25 25 26 25 25 24 23 22 21 20 18 18 17 17 17 17 17 17 17 18 19 20 21 21 21 21 21 20 20 20 20 19 19 20 21 23
30 29 29 29 28 26 24 24 23 24 24 24 24 24 25 26 27 28 28 28 28 28 28 29 29 28 29 29 30 29 28 28 28 29 29 30 29 29 28 28 28 28 28 29 29 29 29 29 29 27 26 26 27 26 26 25 23 22 21 20 19 18 17 17 17 17 16 17 18 20 21 22 23 23 23 22 22 22 23 23 22 22 22 22 22
31 31 30 30 29 28 26 26 25 25 25 25 25 25 26 26 28 29 29 29 30 30 30 30 29 29 30 31 31 30 29 29 29 30 31 32 31 31 31 31 31 31 31 31 31 32 31 31 30 29 28 27 28 28 27 26 25 24 22 21 20 19 18 18 17 16 16 16 17 19 21 22 24 25 25 25 24 24 24 25 24 23 23 22 20
33 32 32 32 31 29 28 28 27 27 26 26 27 27 27 28 29 30 30 31 31 32 32 32 32 31 31 31 31 31 30 30 31 31 32 33 32 32 32 32 32 32 32 33 33 33 33 32 32 31 30 29 29 29 29 28 27 25 24 23 21 20 19 19 18 17 16 16 17 18 20 22 24 26 27 27 26 26 25 25 25 24 24 23 21
34 34 34 34 33 31 30 30 29 29 28 28 28 29 29 30 30 30 31 32 33 34 34 35 34 33 32 32 31 31 32 32 32 32 33 33 33 33 34 33 33 33 33 33 34 34 34 33 33 32 31 30 30 29 30 30 29 27 26 24 23 22 21 20 20 19 18 17 18 19 20 22 24 26 28 28 28 28 27 27 26 25 25 25 23
36 36 36 36 35 33 33 33 32 31 31 30 30 31 31 31 31 31 32 33 35 35 36 36 36 35 34 33 32 31 32 34 34 34 34 34 34 35 35 34 33 33 33 34 34 34 34 34 34 34 33 32 31 30 31 31 31 30 28 26 25 25 24 23 21 21 20 19 19 19 20 22 24 26 28 29 29 29 30 29 27 27 27 28 27
39 38 38 38 37 36 35 35 34 34 33 33 32 32 32 33 32 32 33 34 35 36 37 37 37 37 36 35 34 33 33 34 35 35 35 35 35 37 37 35 34 34 34 34 35 35 36 35 35 35 35 34 32 31 32 32 32 31 30 29 28 27 26 25 24 23 22 20 20 20 21 22 24 26 27 29 30 31 31 31 29 28 28 29 29
41 40 40 40 39 38 38 37 37 36 36 35 34 33 34 34 33 33 34 35 36 37 37 38 38 38 37 37 36 36 35 35 36 36 36 36 36 37 37 36 35 35 35 35 36 37 37 37 37 37 37 36 34 32 32 33 33 33 31 31 30 29 28 27 26 25 25 23 21 21 22 23 24 26 27 29 31 32 33 32 31 30 29 29 30
43 43 43 42 41 41 40 40 39 38 37 36 35 35 35 35 34 34 34 35 36 37 37 38 39 39 39 39 39 38 37 36 37 37 36 36 37 37 38 37 36 36 36 36 37 38 39 39 39 39 38 37 36 35 34 34 34 34 33 32 33 32 31 29 28 28 27 25 24 24 23 24 25 26 28 29 31 33 34 34 34 32 31 31 31
46 45 45 44 44 43 43 43 42 41 40 38 37 36 36 35 35 34 35 35 36 37 37 38 39 40 40 40 41 41 39 39 39 38 37 37 37 38 39 39 39 39 38 37 38 39 40 40 40 40 40 39 38 38 37 36 36 36 35 34 34 34 33 31 31 31 29 27 27 26 25 26 27 28 29 30 31 33 35 35 35 34 34 34 33
48 47 46 46 46 46 46 46 45 43 42 40 39 38 37 36 35 35 35 35 36 37 37 38 40 41 41 41 42 43 43 43 44 43 41 41 41 40 41 41 41 41 40 38 38 39 40 40 41 41 41 40 40 40 39 38 37 38 38 37 36 36 35 34 34 33 31 30 29 28 27 27 28 29 30 31 32 34 36 36 36 36 36 36 37
49 49 48 48 49 49 49 49 48 46 44 41 40 39 38 37 36 36 36 36 37 37 37 38 39 40 41 42 44 45 46 47 48 48 47 46 45 44 44 44 43 43 41 40 39 38 38 39 41 41 41 41 41 41 41 40 40 40 40 39 38 38 38 37 36 35 33 32 31 30 29 29 29 30 32 32 34 35 37 37 38 38 38 39 39
51 51 51 51 52 52 52 52 50 47 45 42 41 40 38 37 37 37 37 37 38 38 38 38 39 41 41 43 45 46 47 48 49 50 49 48 48 47 46 46 45 44 43 41 39 38 37 38 39 41 41 41 41 41 42 41 41 42 42 42 41 41 40 40 38 37 35 34 33 33 32 31 31 32 33 34 35 36 38 38 39 39 40 40 41
54 54 53 54 55 54 54 53 51 48 45 43 41 40 39 38 38 38 38 38 38 39 38 38 39 41 42 43 45 46 47 48 49 50 50 49 49 48 48 48 47 45 44 43 41 38 37 36 37 38 39 39 39 40 41 41 42 43 44 43 43 43 42 42 40 38 37 36 35 35 34 33 33 34 35 36 36 38 39 40 40 40 40 41 41
56 56 56 56 56 56 55 53 50 47 45 44 42 41 40 40 40 40 39 39 39 40 40 40 40 41 42 44 45 46 47 48 49 49 49 49 49 49 49 49 48 47 45 44 42 39 38 37 36 36 37 37 38 39 40 41 42 43 44 44 44 44 43 43 41 39 38 37 37 36 36 35 35 36 37 38 39 39 40 41 42 42 42 42 42
57 57 57 57 57 56 55 52 50 48 46 45 44 43 42 41 41 41 40 41 41 41 42 41 42 42 43 44 45 46 47 48 48 49 49 48 49 49 49 49 48 47 46 44 43 41 39 38 37 36 37 37 37 38 40 41 42 43 44 44 44 44 43 43 42 41 39 38 38 37 37 37 38 39 40 40 40 41 41 42 43 44 44 44 43
58 58 58 59 58 56 54 53 51 49 48 46 45 44 43 43 43 43 42 41 41 42 43 43 43 44 45 45 46 47 47 48 48 48 48 48 48 49 49 49 48 47 46 45 44 42 40 39 39 38 38 37 37 38 39 39 40 42 43 43 43 44 43 43 42 41 40 39 39 39 39 39 40 42 42 42 42 42 43 43 44 45 45 45 45
60 60 60 60 59 57 55 54 53 51 50 48 47 46 46 45 44 43 42 42 42 43 43 43 43 44 45 47 47 48 48 48 48 48 48 48 48 48 49 49 48 48 47 46 45 43 42 41 41 40 39 38 38 38 38 38 39 40 41 42 42 42 43 42 42 41 40 40 40 40 40 41 42 44 44 44 43 44 44 45 45 45 45 45 46
62 61 62 61 60 58 57 56 54 52 51 49 48 48 47 46 45 44 43 43 43 44 44 44 45 45 46 47 47 48 49 49 49 48 47 48 48 48 49 49 49 49 48 47 46 44 43 43 43 42 40 40 39 38 38 38 38 39 39 40 41 42 42 42 41 41 41 41 41 42 43 44 45 46 46 45 45 45 46 46 45 44 44 45 46
63 63 63 62 61 60 58 57 55 54 52 51 50 50 49 47 46 45 45 44 44 45 46 46 46 46 46 46 47 48 49 49 48 48 47 48 48 48 48 49 50 50 49 48 46 44 44 44 44 43 42 41 41 39 38 38 39 39 39 40 41 41 42 42 42 42 42 43 43 44 45 46 47 47 48 47 46 46 46 45 44 43 44 45 46
65 64 63 63 62 60 59 57 56 55 54 52 52 51 50 48 47 46 46 45 46 46 47 47 47 47 47 46 46 47 48 47 47 47 47 48 48 48 49 49 49 50 49 47 45 45 45 45 45 44 43 42 42 41 39 39 41 41 40 41 41 42 42 42 43 43 44 45 45 46 47 48 49 49 49 48 46 45 45 44 43 43 44 46 46
66 65 64 63 62 61 59 57 57 56 55 54 53 52 51 49 48 48 47 47 47 47 48 48 48 48 47 46 46 47 47 46 45 45 46 46 47 48 49 49 49 50 49 47 46 46 47 46 46 45 44 43 43 43 42 41 43 43 42 42 43 43 43 45 45 45 46 47 48 48 49 50 50 49 48 48 46 44 43 42 43 44 46 47 46
66 65 64 63 62 60 58 57 57 57 56 55 55 54 52 51 50 49 48 48 48 48 49 49 49 48 48 46 46 47 47 46 45 45 45 46 47 47 48 49 49 49 49 48 47 48 48 47 47 47 46 45 45 46 45 44 44 44 44 44 45 45 47 48 48 47 48 50 50 49 48 49 48 48 48 48 46 43 41 42 44 47 48 48 47
65 64 63 62 61 61 60 60 60 60 59 58 57 56 54 52 51 51 50 49 49 49 50 50 50 49 48 47 47 47 48 47 46 45 45 46 46 46 47 48 49 49 49 49 48 48 48 48 48 48 48 48 48 48 48 47 46 46 46 47 48 48 49 49 49 49 49 50 48 46 45 45 46 46 46 45 43 41 42 44 46 48 48 47 47
65 63 61 61 62 63 64 64 64 63 61 60 59 57 55 53 52 52 51 51 50 50 51 51 50 50 48 47 47 48 48 48 47 46 45 45 45 45 46 47 48 48 48 49 49 49 48 48 48 49 50 50 50 50 50 49 49 49 49 49 50 51 52 53 52 50 49 49 47 44 43 43 44 43 42 40 40 42 45 46 47 48 49 49 50
64 61 59 61 65 68 70 70 68 65 63 62 60 58 56 54 53 52 52 52 51 52 52 51 51 50 48 47 47 48 49 48 47 45 45 44 44 44 44 45 46 46 47 48 49 49 49 49 50 51 51 51 52 52 52 52 52 52 52 53 54 55 54 53 52 50 49 49 47 44 43 43 43 43 43 43 44 45 47 48 50 51 52 53 54
63 60 58 59 60 64 69 72 71 67 64 62 61 58 56 55 53 53 53 53 53 53 54 53 51 49 48 47 47 48 49 49 48 46 44 44 43 43 43 44 46 46 47 48 49 49 49 49 51 52 52 52 53 54 54 54 54 54 53 53 52 50 49 49 50 50 50 49 46 44 43 42 42 44 45 45 46 47 49 51 53 54 54 55 56
63 62 62 59 54 52 58 64 68 67 65 62 60 57 56 55 54 53 54 55 55 55 54 53 51 49 48 48 48 48 49 50 50 48 46 45 44 43 43 45 46 48 49 49 49 49 49 50 50 51 51 52 53 53 54 54 54 53 53 53 51 49 49 51 52 52 50 47 44 43 43 43 43 44 47 48 49 51 53 55 56 56 57 59 61
65 64 64 60 56 55 59 61 61 61 60 58 56 55 55 55 55 55 56 57 57 56 55 53 52 51 50 49 49 49 50 51 50 49 48 46 45 45 46 46 47 48 48 48 48 48 49 49 50 50 50 51 51 52 52 52 52 52 51 52 51 51 52 52 52 51 50 48 46 46 47 47 48 48 50 52 54 55 56 57 59 61 62 64 66
67 66 66 64 63 66 71 70 64 56 54 54 55 55 57 58 58 58 59 58 58 57 56 55 54 53 52 51 50 50 51 51 51 50 49 49 48 48 48 48 48 48 48 48 48 47 47 48 49 49 49 50 50 50 50 50 50 49 49 49 49 50 50 48 47 47 48 49 50 52 54 55 54 54 55 56 57 57 58 59 62 64 66 67 68
69 69 69 70 70 71 73 73 70 64 61 61 62 61 61 62 61 61 61 60 60 60 59 57 56 55 54 53 52 51 51 52 52 52 51 51 50 50 50 50 50 49 48 48 48 47 47 47 48 48 48 49 49 48 48 48 47 47 47 47 48 49 49 48 48 49 50 50 52 54 56 57 57 58 60 60 61 61 61 63 64 66 67 69 70
70 70 72 73 75 75 74 74 74 73 71 70 68 67 66 65 64 63 63 62 62 62 61 60 59 58 57 56 55 53 52 52 53 54 53 53 52 52 51 51 52 51 50 49 49 48 47 48 48 48 48 48 48 48 48 47 47 47 46 46 47 50 51 51 52 52 52 52 52 54 56 57 58 59 61 62 62 63 64 65 67 68 69 70 72
70 72 73 74 76 79 80 82 82 80 77 75 73 72 70 68 66 66 65 65 64 64 63 62 60 60 59 58 57 56 55 54 55 55 54 54 54 54 53 53 53 53 52 52 51 50 49 49 49 49 49 49 48 48 48 48 48 48 47 46 47 49 51 51 52 52 53 54 55 56 58 59 60 61 62 63 64 65 67 68 69 71 72 74 76
68 70 72 74 76 79 81 82 82 81 78 76 75 73 72 70 69 68 67 66 65 64 63 62 61 61 61 60 60 59 58 57 57 56 55 55 55 55 55 55 55 54 54 54 53 52 52 51 51 51 51 51 50 50 50 49 50 50 50 50 50 51 51 52 54 55 56 57 57 58 60 62 63 64 65 66 67 69 71 72 73 75 77 78 80
64 67 69 71 74 76 77 77 77 77 76 74 74 74 74 73 70 67 64 63 62 62 63 63 63 63 63 63 62 61 61 60 59 58 58 57 57 56 56 56 56 56 56 56 56 55 55 54 54 54 54 54 53 53 53 52 52 52 53 54 54 55 56 57 58 59 60 61 61 63 64 66 67 68 69 70 71 73 75 76 77 79 80 81 82
64 67 69 70 71 73 74 75 75 75 74 74 74 75 75 73 69 66 64 64 65 66 66 66 66 66 65 65 64 64 63 62 62 61 61 60 59 59 58 58 57 57 57 58 58 58 58 58 58 57 57 57 57 56 57 57 56 57 57 58 59 60 61 62 63 64 65 66 67 67 68 69 71 72 73 74 75 77 79 80 81 81 81 82 82
68 69 70 71 71 71 70 69 70 71 71 71 72 72 72 70 69 69 70 71 71 70 69 68 68 68 67 67 66 66 65 65 64 64 63 62 62 61 61 60 60 60 59 60 60 60 61 61 61 60 60 60 60 60 61 61 62 62 63 63 64 64 65 66 67 68 70 71 71 72 73 74 75 75 76 77 79 80 81 82 82 82 82 83 83
72 70 68 68 69 68 66 65 66 67 68 69 71 72 73 73 74 74 75 75 74 72 71 71 70 69 68 68 68 67 67 67 66 66 65 65 64 64 63 63 63 62 62 62 63 63 64 64 64 64 64 64 64 65 65 66 67 67 68 68 69 69 70 71 71 72 73 74 74 75 76 76 77 78 79 80 80 81 82 82 83 83 83 84 85
80 77 73 70 70 70 71 72 74 76 78 78 78 78 77 76 76 76 77 77 77 75 74 72 71 70 70 69 69 69 69 69 68 68 68 67 67 66 66 66 65 65 65 66 66 66 67 67 68 68 68 68 68 69 69 69 70 70 71 72 72 73 74 74 75 75 76 76 77 78 79 79 80 81 81 81 82 83 83 84 84 84 85 85 86
91 89 88 84 81 81 81 83 84 85 85 84 82 80 79 78 78 78 79 79 79 78 76 74 73 72 71 70 70 70 70 70 70 70 70 69 69 69 69 68 68 68 69 69 69 69 70 70 71 72 72 72 72 72 72 72 73 74 74 75 76 76 77 77 78 78 79 80 80 81 81 82 82 83 83 84 84 85 85 86 86 86 86 87 88
93 93 94 94 93 91 90 89 88 88 87 85 83 82 82 81 79 77 75 74 74 75 75 74 74 73 73 72 72 72 72 72 72 71 71 71 71 71 71 71 71 71 71 72 72 72 72 73 74 74 75 75 75 75 75 76 76 77 77 78 79 79 80 80 81 81 82 82 83 84 84 85 85 86 86 86 87 87 87 87 87 87 87 88 89
89 89 90 90 90 89 88 87 86 86 86 84 83 81 80 79 78 76 74 73 72 72 72 72 72 73 73 73 73 72 72 73 73 73 73 73 73 73 73 73 74 74 74 74 74 75 75 76 77 77 77 78 78 79 79 79 79 80 80 81 81 82 82 83 83 84 84 84 85 85 86 86 86 86 87 87 87 87 86 87 87 88 89 90 91
Wind_Direction
202 205 209 214 219 225 229 233 235 238 241 243 244 246 249 252 255 258 262 267 271 274 276 278 279 282 286 290 295 298 299 300 298 296 298 302 309 314 320 328 336 342 345 345 346 347 349 351 354 356 357 360 2 3 5 8 10 12 12 10 9 11 15 18 21 22 21 18 17 18 20 24 31 39 49 59 57 45 35 28 23 18 13 11 11
205 206 209 213 217 221 227 231 234 237 242 246 247 248 250 252 254 257 261 264 268 270 273 274 275 276 279 283 287 289 290 292 293 292 292 295 301 306 312 319 327 334 339 341 340 340 342 343 345 348 350 354 358 360 1 4 7 10 11 10 7 6 9 12 14 15 16 15 13 12 14 18 27 35 46 57 54 40 30 24 18 13 8 6 2
208 208 211 215 218 221 226 231 234 237 240 245 249 251 253 255 255 258 260 262 264 266 269 272 273 274 275 278 280 281 283 285 287 287 287 289 294 299 304 310 317 324 330 335 336 335 335 336 337 340 343 346 351 355 357 359 3 6 9 9 7 3 3 5 6 6 7 8 8 8 7 10 19 29 36 41 41 34 28 22 17 15 15 14 11
209 210 212 214 217 220 225 231 234 237 238 242 246 250 254 256 258 260 261 262 263 264 267 269 270 272 273 274 275 276 278 281 282 283 284 285 288 293 298 303 308 314 320 325 330 331 330 330 330 333 335 338 342 347 352 354 358 1 5 7 7 3 359 359 359 359 358 358 359 1 1 3 9 21 30 30 23 18 16 13 12 13 16 17 18
215 213 213 213 214 218 223 229 234 237 239 241 243 248 252 255 258 261 262 263 264 264 265 267 267 269 270 271 272 273 276 278 279 280 282 283 284 288 292 297 301 306 311 315 321 325 326 325 324 326 329 331 334 338 344 348 352 355 360 3 5 3 358 354 352 352 350 350 351 353 355 356 360 8 18 23 16 7 4 5 5 7 10 14 18
225 222 218 214 212 214 219 225 232 238 241 242 244 248 252 255 257 259 260 262 263 264 265 266 266 267 267 268 271 273 275 277 278 279 280 280 282 284 287 292 296 299 303 307 311 317 320 320 319 319 322 325 327 329 334 340 346 349 353 357 2 3 359 354 348 345 344 342 343 345 347 350 352 355 359 4 6 5 5 6 6 6 7 10 14
230 230 227 222 217 216 218 222 228 236 242 244 245 247 252 255 256 257 258 260 261 262 264 265 266 266 266 268 271 273 274 275 276 277 278 279 280 282 284 288 291 294 297 300 304 308 313 316 315 314 315 318 321 323 325 330 337 342 345 350 355 359 359 355 348 342 337 336 335 335 337 341 345 347 348 350 352 356 1 5 9 10 9 8 10
231 233 234 231 228 224 223 224 227 233 240 244 245 246 249 252 254 255 257 258 259 260 262 264 264 265 266 270 273 275 275 275 274 274 275 276 277 279 282 284 287 290 293 295 298 302 306 309 311 310 309 310 313 316 319 321 327 333 338 342 347 353 357 355 349 342 334 329 327 327 329 333 337 339 339 340 341 343 347 352 360 7 10 7 5
229 231 233 235 236 235 233 232 232 234 238 242 243 244 246 249 252 254 256 257 258 259 261 262 263 265 267 270 273 275 276 276 274 273 273 274 275 277 279 282 284 286 289 292 294 297 300 303 306 307 305 304 306 309 312 314 318 323 329 333 338 344 350 353 350 343 334 327 322 321 322 324 328 330 331 331 331 330 331 335 342 352 1 2 359
229 230 233 236 239 240 241 241 241 241 242 244 246 246 247 248 251 252 254 256 258 259 260 261 262 264 267 270 272 273 275 276 275 273 273 273 274 275 277 279 281 283 285 288 290 293 295 298 301 302 301 299 299 302 306 309 311 315 319 325 329 333 340 346 349 344 335 326 320 317 315 315 318 321 323 324 324 321 320 323 327 334 345 354 356
231 231 233 235 238 240 243 246 247 247 248 249 251 251 251 251 251 252 253 254 256 257 258 260 262 264 265 268 270 271 273 275 275 274 274 274 275 276 276 277 279 281 283 285 287 289 291 294 296 298 298 296 294 295 299 303 306 308 312 317 322 325 329 335 342 344 337 327 318 313 311 309 311 314 316 318 318 317 316 318 322 327 335 348 357
232 233 233 235 236 238 241 244 247 248 250 252 254 255 255 254 254 254 254 254 254 255 257 258 260 262 263 265 268 270 271 272 273 274 274 275 276 276 277 277 278 280 281 283 285 287 288 290 292 293 294 294 292 291 293 297 301 303 306 310 315 318 320 324 331 336 337 329 320 313 310 308 307 309 311 313 314 315 314 315 319 323 328 338 352
233 234 235 236 237 238 240 243 245 247 249 252 254 256 257 256 255 256 256 256 255 255 255 256 257 258 260 263 266 268 270 271 271 273 273 275 275 276 276 277 278 279 281 282 284 285 286 287 288 289 290 291 289 288 289 292 296 299 302 305 308 311 313 314 318 324 330 329 323 316 311 308 306 306 307 309 310 311 312 312 314 317 319 326 336
235 236 236 236 237 238 240 242 244 246 248 250 252 254 255 256 256 257 257 257 256 256 255 255 256 257 259 262 265 267 268 269 269 270 271 272 273 274 274 275 276 277 278 280 281 282 283 283 284 285 287 288 288 286 286 288 292 296 299 302 303 306 307 308 310 314 320 324 323 319 314 309 305 304 304 305 307 308 309 309 309 310 312 316 323
235 236 237 237 237 239 241 242 244 245 246 248 250 252 254 256 257 258 258 258 258 258 258 258 258 258 258 260 262 265 267 268 267 267 268 269 271 271 271 272 273 275 275 276 277 278 279 280 280 281 282 284 285 285 284 285 288 293 297 299 301 301 303 305 305 307 312 317 319 318 315 310 306 303 302 302 303 304 306 307 307 308 309 312 316
235 236 237 237 238 239 241 243 244 245 246 248 250 253 255 258 260 261 262 262 262 261 261 260 260 259 259 259 260 263 266 268 267 265 265 266 267 268 268 270 272 273 274 274 274 274 275 276 277 277 278 279 281 283 282 283 285 289 294 297 299 299 299 302 302 302 304 310 313 314 313 310 306 303 301 301 301 302 303 304 305 305 306 308 312
235 236 237 238 238 239 241 243 245 246 248 249 251 254 257 260 262 264 264 265 264 263 263 262 261 260 259 259 258 260 263 267 268 266 262 262 264 266 267 269 271 272 274 275 274 273 272 272 272 273 274 275 276 278 279 280 282 285 290 294 296 296 297 299 299 298 299 304 306 308 310 309 306 303 301 300 299 299 300 301 302 303 303 304 306
235 236 237 237 238 239 241 243 245 247 249 251 253 255 258 261 263 265 267 267 267 266 265 263 261 260 259 258 257 257 259 264 266 264 261 259 261 264 266 268 270 273 275 277 278 275 272 271 271 271 272 272 272 274 275 277 279 281 284 289 292 294 296 297 296 295 297 300 301 302 305 306 304 302 301 299 297 297 297 299 301 301 300 300 301
234 236 236 237 238 240 242 243 245 247 249 251 254 256 258 261 265 267 268 269 268 268 267 265 263 261 260 258 257 256 256 258 261 261 260 259 260 263 266 269 271 274 276 278 279 279 277 275 273 273 273 273 272 272 272 274 277 279 281 284 288 292 295 295 293 293 295 296 297 298 301 303 303 302 300 297 296 295 295 296 297 297 296 296 296
232 235 236 236 238 240 242 243 244 246 248 250 253 256 258 261 264 267 268 270 270 269 268 267 265 264 262 260 258 257 255 255 257 258 260 261 262 264 267 270 272 274 276 278 279 281 281 279 277 276 276 275 273 272 271 272 274 277 279 282 285 290 293 292 291 291 292 293 294 295 297 300 301 300 298 296 294 293 293 293 294 293 293 293 294
231 233 235 236 238 239 241 243 244 246 247 250 253 256 259 262 265 267 270 270 271 270 269 267 266 265 264 262 260 259 257 256 256 257 259 261 264 266 268 270 273 274 276 277 279 281 283 282 280 278 277 277 275 273 272 272 273 275 277 280 283 286 288 289 288 289 289 290 291 292 294 297 298 297 296 295 294 292 292 293 293 293 293 293 294
232 233 234 236 237 239 241 243 245 247 249 251 254 257 260 263 266 268 270 271 271 271 270 269 267 267 266 264 263 261 260 259 258 258 259 261 263 265 267 270 272 273 275 277 278 281 283 284 282 279 278 278 276 275 274 273 273 273 275 277 280 283 285 286 286 287 287 288 288 290 292 295 296 295 294 294 293 292 293 293 292 292 292 293 293
232 233 235 236 238 240 242 244 247 249 252 254 256 259 261 263 265 267 270 271 271 271 270 268 267 267 266 266 265 264 263 262 262 261 261 262 263 265 267 269 270 272 273 275 277 279 282 283 283 282 280 279 278 276 275 274 273 273 274 276 278 280 282 284 285 285 285 286 287 289 292 294 294 294 294 294 294 293 293 294 294 293 293 292 293
233 234 236 237 239 241 243 246 248 251 253 255 256 258 261 263 265 268 269 270 270 270 269 267 266 266 266 266 266 266 265 264 264 263 263 263 264 265 266 268 269 271 272 273 275 277 279 281 283 283 281 280 278 276 275 274 273 273 274 275 277 279 281 282 283 283 284 285 287 289 292 294 294 294 294 295 296 295 294 295 295 294 294 293 293
234 236 237 239 241 242 244 247 249 251 253 255 256 259 261 263 265 267 269 270 271 270 269 267 266 265 265 265 265 265 265 265 265 265 266 266 265 266 266 267 268 270 271 273 274 275 276 278 280 281 280 279 279 277 276 275 274 274 275 276 277 278 280 281 282 283 283 285 288 290 292 294 294 293 295 296 296 295 295 294 294 294 294 294 294
235 236 238 239 241 243 244 247 248 250 252 255 257 259 261 263 265 268 270 272 272 271 269 268 267 266 265 265 265 265 266 266 266 266 267 266 266 265 266 266 267 269 270 271 272 273 275 276 277 278 279 280 281 280 279 278 277 276 276 277 278 279 280 280 281 283 285 287 289 291 293 293 293 293 295 296 296 295 294 294 294 294 294 294 294
236 236 238 240 241 242 244 246 248 250 252 255 257 259 261 264 267 269 271 272 272 270 269 268 267 267 266 266 266 266 266 266 266 267 266 266 266 266 266 266 267 267 268 269 270 271 273 274 275 276 278 280 281 282 281 281 279 279 278 278 279 279 279 280 282 284 286 288 290 291 292 292 292 293 294 295 295 295 295 294 294 294 294 294 294
236 237 238 240 241 243 244 246 249 251 253 255 258 260 262 265 268 269 271 272 271 270 268 267 266 266 266 266 267 267 267 267 267 268 267 267 267 266 266 266 266 266 267 268 269 271 272 273 274 275 277 278 280 281 283 282 281 280 280 279 279 279 280 281 283 285 287 288 289 290 290 291 291 292 292 293 294 295 296 296 296 294 293 293 294
237 238 239 241 242 244 246 248 250 253 255 257 259 262 264 266 268 269 271 272 271 269 268 267 267 267 267 267 267 267 268 268 269 269 268 267 267 267 266 266 266 267 267 268 270 271 272 272 273 274 275 277 279 280 282 282 281 280 279 278 279 279 281 283 284 285 286 287 288 289 290 290 291 291 291 292 293 295 296 296 295 294 295 295 295
238 239 240 242 244 246 248 251 253 255 257 259 261 263 265 266 267 269 271 271 270 270 268 267 267 267 267 267 268 268 268 269 269 269 268 268 268 267 267 266 267 267 267 268 269 269 269 270 271 272 273 275 277 279 280 280 279 278 278 278 279 280 281 281 282 282 284 286 287 288 289 289 290 291 291 292 292 292 293 293 293 294 296 296 295
240 241 243 244 247 249 252 254 256 257 258 260 262 263 264 265 267 268 269 270 270 270 268 267 266 266 267 268 268 269 269 269 269 269 269 268 268 267 267 267 267 267 267 268 267 267 267 268 270 271 272 274 276 276 276 275 275 276 277 278 279 279 279 279 279 281 284 285 287 289 290 290 291 291 290 291 290 288 289 291 292 294 296 296 294
241 243 246 248 251 253 255 256 257 258 259 260 261 262 262 264 266 267 268 269 270 270 268 267 266 266 267 267 268 269 269 269 269 268 268 267 267 267 267 267 267 267 267 267 266 266 267 268 269 271 272 273 274 274 274 274 274 275 277 277 278 278 278 278 279 282 284 285 288 290 292 293 293 291 290 290 288 286 287 290 291 293 296 296 296
244 246 248 251 254 256 257 258 257 258 259 259 259 260 261 262 264 266 268 269 269 269 268 267 266 266 267 268 268 269 269 269 269 269 268 268 268 268 268 268 268 268 268 268 267 267 267 268 269 271 272 272 273 274 275 275 275 275 276 276 276 276 277 278 280 282 284 285 288 289 291 293 296 295 291 289 288 288 290 291 292 294 296 297 297
245 248 251 254 257 258 258 258 257 257 257 257 257 258 259 261 263 265 267 268 268 268 267 267 266 267 267 268 269 269 270 270 270 270 270 269 269 269 270 270 270 270 270 269 269 268 267 267 268 269 270 271 272 273 274 275 275 275 275 275 276 276 277 278 279 281 283 285 285 286 287 291 294 295 293 291 291 292 292 293 295 297 299 298 298
246 249 253 257 260 260 258 256 255 255 254 254 255 256 258 260 262 264 266 266 266 266 266 265 266 267 268 269 269 269 270 270 270 270 270 270 270 271 272 272 273 273 272 272 272 271 270 269 268 268 268 269 270 271 272 273 274 275 276 276 277 278 278 279 280 282 283 284 284 283 284 287 289 291 291 290 290 291 291 293 296 297 296 295 294
245 247 250 253 258 261 260 256 252 251 251 251 253 255 257 259 261 263 264 264 264 264 264 265 267 268 269 269 270 270 270 270 270 269 268 269 269 270 271 273 274 274 274 274 274 274 273 272 270 270 270 270 270 271 272 273 274 275 276 277 279 279 279 281 282 282 283 284 282 278 278 282 286 287 287 286 286 288 289 291 291 290 289 289 291
244 245 246 247 250 256 259 255 249 247 248 250 252 255 257 259 261 262 263 264 264 264 265 266 267 267 267 267 268 269 270 271 271 270 269 269 270 271 272 273 273 274 274 275 275 275 275 274 273 272 272 271 271 272 272 272 273 274 275 277 279 279 280 281 282 281 281 281 277 273 274 277 279 281 281 280 282 284 287 288 287 286 287 289 292
243 244 247 248 246 247 250 251 249 247 247 249 252 256 258 260 262 263 264 264 264 264 264 265 265 266 266 267 267 268 268 269 270 271 271 271 271 271 271 272 272 272 273 274 274 275 274 274 274 273 272 271 271 271 272 273 273 274 275 276 277 278 280 281 281 280 279 277 272 270 273 275 275 276 277 279 280 282 284 286 287 287 288 290 293
245 244 246 246 244 243 245 248 248 249 251 254 257 260 261 263 264 264 264 264 264 263 263 263 264 265 266 266 267 267 268 268 268 269 269 269 269 269 270 271 271 271 272 272 273 273 273 273 273 273 272 272 272 272 272 273 274 274 274 275 276 278 279 279 279 279 278 276 273 273 275 277 276 276 278 280 281 282 283 284 286 288 290 292 294
245 245 245 245 244 244 244 246 247 251 258 262 263 263 263 264 264 264 264 264 263 262 262 263 264 264 265 265 266 266 267 267 268 268 268 268 268 269 269 270 270 270 271 271 272 273 273 274 274 274 274 274 274 274 274 274 274 275 274 275 276 277 276 275 276 278 278 276 274 274 276 276 276 276 277 278 279 280 281 283 285 288 291 293 294
245 246 247 248 248 246 246 248 251 256 261 264 264 263 264 264 264 264 264 263 262 262 262 263 263 264 265 265 266 266 266 266 266 267 267 268 269 269 270 270 270 271 272 272 272 273 274 275 275 275 276 276 276 277 277 277 278 277 277 276 276 275 274 274 275 276 275 274 272 272 274 275 276 277 278 279 280 281 282 284 286 288 290 292 293
247 247 248 248 249 249 249 252 255 259 261 262 262 263 263 262 262 263 262 262 262 262 263 263 264 265 266 266 267 266 266 265 265 265 266 267 268 269 270 271 272 272 272 273 273 274 274 275 275 276 277 277 278 278 278 279 279 279 278 276 274 272 271 272 273 273 274 274 275 275 277 278 279 280 282 283 283 284 285 286 287 289 291 293 295
248 249 249 248 249 250 252 254 256 258 259 260 261 261 261 261 262 262 262 261 261 262 263 264 266 267 268 268 268 268 267 267 266 267 267 267 268 269 270 271 272 272 273 273 273 274 274 274 275 276 276 277 277 278 278 279 279 279 279 277 274 271 270 271 272 273 274 275 276 277 278 280 281 282 284 284 285 285 286 287 289 290 292 294 296
242 245 246 246 246 247 250 252 254 256 257 257 258 259 259 260 261 260 259 259 260 263 264 266 268 269 270 270 270 269 269 269 269 269 268 268 268 268 269 270 271 272 273 273 274 274 274 275 275 276 276 277 278 279 279 280 280 280 279 279 278 276 275 274 274 275 274 275 276 277 278 279 281 282 283 284 285 286 288 289 290 292 293 295 296
236 238 239 240 242 245 247 249 251 252 254 255 256 257 258 258 258 257 257 260 263 265 266 268 269 270 270 271 271 271 270 270 270 269 269 269 269 269 270 270 270 271 272 273 274 274 275 275 276 277 277 278 279 280 280 280 280 279 279 279 278 278 277 277 277 277 276 277 277 278 279 280 281 282 283 285 286 288 289 290 292 293 295 296 297
237 239 239 238 241 244 246 247 248 249 250 251 253 255 256 256 257 258 260 263 265 266 266 267 268 269 269 270 270 270 270 270 270 270 270 270 270 270 270 271 271 272 273 274 274 275 275 276 276 277 277 278 278 279 279 279 279 278 278 279 279 278 278 278 278 278 278 279 279 280 281 281 282 283 284 286 287 289 290 292 293 295 296 297 298
237 238 237 235 237 239 240 241 243 245 246 248 251 254 256 257 259 260 262 263 264 264 264 265 266 267 268 268 269 269 269 269 269 270 270 270 270 271 271 271 272 272 272 273 274 274 274 275 275 275 276 276 277 277 277 278 278 278 278 279 279 279 279 280 280 280 280 281 281 282 283 283 284 286 287 288 289 291 292 293 294 295 296 297 298
236 237 236 234 234 235 237 239 243 245 248 251 253 254 254 256 258 260 261 262 262 262 262 262 263 264 264 266 266 267 268 268 268 269 269 270 270 271 271 271 271 271 272 272 272 273 273 273 274 274 274 275 275 276 276 277 277 278 279 279 280 280 281 281 282 282 283 283 284 284 285 286 287 288 289 290 291 291 292 293 294 295 296 297 298
236 238 239 239 240 241 243 245 247 249 251 253 254 253 253 255 257 259 259 260 260 260 260 260 261 262 262 263 264 265 266 266 267 268 268 269 270 270 270 270 271 271 271 271 272 272 272 273 273 273 273 274 275 275 276 277 278 279 280 280 281 282 282 283 283 284 284 285 285 286 287 287 288 288 289 290 290 291 291 292 293 294 296 297 299
236 239 241 242 244 246 248 248 248 249 250 251 252 252 253 255 256 257 257 257 257 258 258 259 259 260 261 262 262 263 264 265 266 267 267 268 269 270 270 270 271 271 271 271 272 272 272 272 272 273 273 273 274 274 275 277 278 279 280 281 282 283 283 284 285 285 285 286 286 287 287 287 288 288 289 289 290 290 291 292 294 295 297 298 299
236 238 240 242 244 246 247 247 247 248 249 249 250 252 253 254 254 254 255 255 256 257 257 258 259 260 261 261 261 262 263 264 265 266 267 268 268 269 270 270 271 271 272 272 272 273 273 273 273 273 273 273 274 274 275 277 278 279 280 281 282 283 284 285 285 286 286 286 287 287 287 288 288 289 289 290 290 291 292 293 294 296 297 297 298
Height
11002 11004 11006 11008 11010 11012 11013 11015 11016 11017 11018 11019 11020 11021 11021 11022 11023 11024 11024 11025 11026 11027 11028 11028 11028 11029 11029 11029 11029 11030 11030 11030 11030 11030 11030 11029 11028 11028 11027 11026 11025 11024 11023 11022 11021 11020 11019 11018 11016 11014 11013 11012 11011 11009 11008 11007 11006 11004 11002 11000 10999 10998 10996 10995 10994 10993 10991 10989 10987 10986 10984 10983 10982 10980 10978 10977 10975 10974 10973 10971 10969 10968 10966 10965 10964
11000 11002 11003 11005 11007 11009 11011 11013 11015 11016 11016 11017 11018 11019 11019 11020 11021 11022 11022 11024 11025 11025 11026 11026 11027 11027 11027 11028 11028 11028 11028 11029 11029 11029 11029 11028 11028 11027 11026 11025 11025 11024 11023 11022 11021 11019 11018 11017 11016 11014 11013 11011 11010 11009 11008 11007 11006 11004 11002 11001 10999 10998 10997 10996 10995 10994 10992 10990 10988 10986 10985 10984 10983 10982 10980 10978 10976 10974 10973 10972 10970 10968 10967 10965 10963
10999 11001 11002 11004 11005 11007 11009 11011 11012 11014 11015 11015 11016 11017 11017 11018 11019 11020 11021 11022 11022 11023 11024 11025 11025 11025 11026 11026 11026 11026 11027 11027 11027 11027 11027 11027 11027 11026 11025 11024 11024 11023 11023 11022 11021 11019 11018 11017 11016 11014 11013 11011 11010 11009 11008 11007 11006 11005 11003 11001 11000 10998 10997 10996 10995 10994 10992 10991 10989 10987 10986 10984 10984 10983 10981 10979 10976 10975 10973 10972 10971 10969 10968 10966 10964
10997 10999 11000 11002 11004 11006 11007 11008 11010 11011 11012 11013 11014 11015 11016 11017 11017 11018 11019 11020 11020 11021 11022 11023 11023 11024 11024 11024 11024 11024 11025 11025 11026 11026 11026 11026 11025 11025 11024 11023 11023 11022 11022 11021 11021 11019 11018 11016 11015 11014 11013 11011 11010 11009 11008 11007 11006 11005 11003 11002 11000 10999 10998 10997 10995 10994 10992 10991 10989 10988 10986 10985 10984 10983 10982 10979 10977 10976 10974 10973 10970 10969 10968 10966 10965
10996 10997 10998 11000 11002 11003 11005 11006 11007 11008 11009 11011 11012 11013 11014 11015 11016 11016 11017 11018 11018 11019 11020 11021 11021 11022 11022 11022 11022 11022 11023 11023 11024 11024 11024 11024 11024 11023 11022 11022 11021 11021 11020 11020 11020 11019 11017 11016 11015 11014 11012 11011 11009 11008 11007 11006 11005 11004 11003 11002 11001 10999 10998 10997 10995 10994 10992 10990 10989 10987 10986 10985 10984 10983 10982 10981 10979 10977 10975 10973 10971 10969 10968 10967 10966
10994 10995 10996 10998 10999 11001 11002 11003 11004 11005 11007 11009 11010 11011 11012 11013 11014 11014 11015 11016 11016 11017 11017 11018 11019 11020 11020 11020 11020 11020 11021 11022 11022 11022 11022 11022 11022 11021 11021 11020 11019 11019 11018 11018 11018 11017 11017 11015 11014 11013 11012 11010 11009 11007 11006 11006 11005 11004 11003 11002 11001 11000 10998 10997 10995 10994 10992 10990 10988 10987 10986 10985 10984 10983 10982 10981 10979 10978 10976 10975 10972 10970 10968 10967 10966
10993 10994 10995 10996 10997 10998 10999 11000 11001 11003 11004 11006 11008 11009 11010 11010 11011 11012 11013 11013 11014 11014 11015 11016 11017 11017 11017 11018 11018 11019 11019 11020 11020 11020 11020 11019 11019 11019 11019 11018 11018 11017 11016 11016 11015 11015 11015 11014 11013 11011 11010 11009 11008 11006 11005 11004 11004 11003 11002 11002 11001 11000 10998 10997 10995 10993 10992 10990 10988 10986 10985 10985 10984 10983 10981 10980 10978 10977 10976 10975 10973 10972 10969 10968 10966
10990 10992 10993 10994 10995 10996 10997 10998 11000 11001 11002 11004 11005 11007 11007 11008 11009 11009 11010 11011 11011 11012 11013 11013 11014 11014 11015 11015 11016 11016 11017 11017 11018 11017 11017 11017 11017 11017 11016 11016 11015 11015 11014 11014 11013 11013 11013 11012 11011 11010 11009 11008 11007 11005 11004 11003 11002 11002 11001 11001 11000 10999 10998 10996 10995 10993 10991 10989 10987 10985 10984 10984 10984 10983 10982 10980 10978 10977 10976 10975 10974 10973 10970 10968 10966
10988 10989 10990 10991 10993 10994 10995 10997 10998 10999 11000 11001 11002 11003 11004 11005 11006 11007 11007 11008 11008 11009 11010 11011 11011 11012 11012 11013 11013 11014 11015 11015 11015 11015 11015 11014 11014 11014 11014 11013 11013 11012 11012 11011 11010 11010 11010 11009 11009 11008 11006 11005 11005 11004 11003 11001 11001 11000 11000 10999 10999 10998 10997 10996 10994 10993 10991 10989 10987 10984 10982 10982 10982 10982 10982 10980 10979 10977 10976 10975 10974 10973 10971 10968 10965
10984 10986 10987 10989 10990 10992 10993 10994 10995 10996 10997 10998 10999 11000 11001 11002 11003 11003 11004 11005 11006 11007 11007 11007 11008 11009 11009 11010 11010 11011 11012 11013 11013 11012 11012 11012 11011 11011 11011 11010 11010 11010 11009 11009 11008 11007 11007 11006 11006 11005 11004 11003 11002 11001 11001 11000 10999 10998 10998 10998 10997 10997 10997 10995 10994 10992 10990 10988 10986 10984 10982 10980 10980 10981 10981 10980 10979 10977 10976 10975 10973 10972 10970 10967 10963
10981 10983 10985 10986 10988 10989 10990 10991 10992 10993 10994 10995 10996 10997 10998 10998 10999 11000 11000 11001 11002 11003 11004 11004 11005 11006 11006 11007 11007 11008 11009 11009 11010 11009 11009 11009 11009 11009 11008 11008 11007 11007 11006 11006 11005 11005 11004 11003 11003 11002 11002 11001 11000 10999 10998 10998 10997 10996 10995 10995 10995 10995 10995 10994 10993 10991 10990 10988 10986 10984 10982 10980 10979 10979 10979 10979 10978 10977 10975 10973 10971 10970 10968 10966 10962
10977 10979 10981 10982 10984 10986 10987 10988 10989 10990 10991 10992 10992 10993 10994 10995 10996 10996 10997 10998 10998 10999 11000 11001 11002 11002 11003 11003 11003 11004 11005 11006 11006 11006 11005 11005 11005 11005 11005 11005 11004 11004 11003 11003 11002 11001 11001 11000 10999 10999 10998 10998 10997 10996 10996 10995 10995 10994 10993 10993 10993 10993 10993 10992 10992 10991 10989 10987 10985 10983 10982 10980 10978 10976 10976 10976 10976 10975 10974 10971 10969 10967 10966 10965 10962
10974 10976 10977 10979 10980 10982 10983 10984 10985 10986 10987 10988 10989 10990 10990 10991 10992 10992 10993 10994 10994 10995 10996 10997 10997 10999 10999 11000 11000 11001 11002 11002 11002 11002 11001 11001 11001 11001 11001 11001 11001 11000 11000 10999 10999 10998 10997 10997 10996 10996 10995 10995 10994 10994 10993 10992 10992 10992 10991 10991 10991 10991 10991 10990 10990 10989 10988 10986 10985 10983 10980 10978 10977 10975 10974 10973 10973 10973 10972 10970 10968 10966 10964 10964 10962
10971 10972 10974 10975 10976 10978 10979 10980 10981 10982 10983 10984 10985 10986 10986 10987 10988 10988 10989 10989 10990 10990 10991 10992 10993 10994 10995 10996 10997 10997 10998 10998 10998 10998 10997 10997 10997 10997 10996 10996 10996 10996 10996 10996 10995 10994 10994 10993 10993 10992 10992 10992 10991 10991 10990 10989 10989 10989 10989 10988 10988 10988 10988 10988 10988 10987 10986 10984 10983 10981 10979 10977 10976 10974 10972 10971 10970 10969 10969 10968 10967 10965 10963 10961 10960
10966 10968 10970 10971 10972 10974 10975 10975 10977 10978 10979 10980 10981 10981 10982 10983 10984 10985 10985 10985 10985 10986 10987 10988 10989 10990 10991 10992 10993 10994 10994 10994 10994 10994 10993 10992 10992 10991 10991 10991 10992 10992 10992 10992 10991 10991 10990 10990 10989 10989 10988 10988 10988 10988 10987 10987 10986 10986 10986 10986 10985 10985 10985 10985 10985 10984 10983 10982 10980 10979 10977 10976 10974 10972 10971 10969 10967 10966 10965 10964 10963 10962 10960 10959 10957
10962 10964 10965 10966 10968 10969 10970 10971 10972 10973 10974 10975 10976 10977 10978 10979 10980 10981 10982 10982 10982 10982 10983 10984 10984 10986 10987 10988 10989 10990 10989 10989 10989 10989 10988 10988 10987 10986 10985 10986 10987 10987 10987 10987 10987 10986 10986 10986 10986 10985 10985 10985 10986 10985 10984 10984 10983 10983 10983 10982 10982 10982 10981 10981 10982 10981 10981 10980 10979 10977 10976 10974 10972 10971 10969 10967 10965 10963 10962 10961 10960 10959 10957 10956 10954
10957 10959 10960 10961 10963 10965 10965 10966 10967 10969 10970 10971 10972 10973 10974 10975 10976 10977 10978 10978 10978 10978 10979 10980 10980 10981 10982 10983 10984 10984 10985 10985 10984 10984 10984 10983 10982 10981 10980 10981 10981 10982 10982 10983 10982 10982 10982 10982 10982 10982 10982 10982 10983 10982 10982 10981 10980 10980 10980 10979 10978 10978 10978 10978 10978 10978 10978 10977 10976 10975 10973 10972 10970 10968 10967 10965 10963 10961 10959 10958 10958 10956 10955 10953 10952
10952 10953 10955 10956 10958 10959 10961 10962 10963 10964 10965 10966 10968 10969 10970 10970 10971 10973 10973 10974 10974 10974 10975 10976 10976 10977 10978 10978 10979 10979 10980 10980 10979 10979 10979 10978 10977 10976 10975 10975 10976 10977 10978 10979 10978 10978 10977 10977 10977 10977 10978 10979 10979 10979 10978 10977 10977 10977 10977 10976 10975 10974 10975 10975 10974 10974 10974 10974 10973 10971 10970 10969 10967 10966 10964 10963 10961 10959 10957 10955 10955 10954 10952 10951 10950
10946 10947 10949 10951 10953 10954 10955 10957 10958 10959 10961 10962 10963 10964 10965 10966 10967 10968 10969 10969 10970 10970 10971 10972 10972 10972 10973 10974 10974 10975 10976 10976 10975 10974 10974 10973 10972 10972 10971 10971 10972 10973 10974 10975 10974 10973 10973 10973 10973 10973 10973 10974 10974 10974 10974 10973 10973 10973 10972 10972 10971 10971 10971 10971 10970 10970 10970 10970 10969 10967 10966 10965 10963 10962 10961 10959 10958 10956 10954 10953 10952 10951 10950 10949 10948
10940 10942 10944 10946 10948 10949 10950 10951 10952 10954 10956 10958 10959 10960 10961 10962 10963 10964 10964 10965 10965 10966 10966 10967 10967 10968 10969 10969 10969 10969 10970 10970 10969 10969 10969 10968 10968 10968 10967 10967 10968 10969 10970 10971 10971 10970 10969 10969 10969 10968 10969 10970 10970 10969 10969 10969 10969 10968 10967 10968 10968 10967 10967 10966 10965 10965 10965 10965 10964 10963 10962 10961 10959 10958 10956 10955 10954 10953 10951 10950 10950 10949 10948 10946 10945
10936 10937 10939 10941 10942 10943 10944 10944 10947 10950 10952 10953 10955 10955 10957 10958 10959 10959 10960 10960 10961 10961 10962 10962 10963 10963 10964 10964 10964 10964 10964 10964 10964 10964 10964 10964 10964 10964 10963 10963 10964 10965 10966 10966 10967 10967 10966 10966 10965 10964 10964 10965 10965 10965 10964 10964 10964 10963 10962 10963 10963 10963 10962 10961 10960 10960 10960 10960 10960 10959 10958 10957 10955 10954 10953 10951 10950 10949 10947 10946 10946 10945 10944 10943 10942
10930 10932 10933 10935 10936 10937 10938 10939 10942 10945 10947 10949 10950 10951 10953 10954 10954 10955 10955 10956 10956 10956 10957 10958 10958 10958 10959 10959 10958 10958 10958 10959 10959 10959 10959 10960 10960 10960 10959 10959 10960 10961 10961 10962 10962 10963 10963 10963 10962 10960 10960 10960 10960 10960 10959 10959 10959 10958 10957 10957 10957 10957 10956 10956 10955 10955 10955 10955 10954 10954 10953 10952 10951 10950 10949 10948 10947 10945 10943 10942 10942 10941 10940 10939 10938
10924 10926 10928 10929 10930 10932 10933 10935 10938 10941 10943 10945 10946 10947 10949 10949 10950 10950 10951 10951 10951 10951 10952 10952 10952 10953 10953 10953 10953 10952 10953 10954 10954 10954 10955 10955 10956 10955 10955 10955 10956 10956 10957 10957 10958 10958 10959 10958 10958 10957 10956 10956 10956 10955 10954 10954 10953 10952 10951 10952 10952 10951 10951 10951 10951 10950 10950 10949 10949 10949 10948 10948 10947 10945 10944 10943 10942 10941 10939 10938 10937 10936 10935 10934 10933
10919 10921 10922 10924 10925 10927 10929 10931 10934 10937 10938 10940 10942 10943 10944 10945 10945 10946 10946 10946 10946 10946 10947 10947 10947 10947 10947 10947 10947 10947 10947 10948 10949 10949 10950 10951 10951 10951 10951 10951 10951 10951 10952 10952 10953 10953 10953 10953 10953 10952 10951 10951 10950 10950 10949 10948 10947 10947 10946 10947 10946 10946 10946 10946 10946 10945 10945 10945 10944 10944 10943 10943 10942 10940 10939 10938 10937 10935 10934 10933 10931 10930 10929 10928 10927
10914 10916 10917 10918 10920 10922 10925 10927 10930 10932 10933 10935 10937 10938 10939 10940 10940 10941 10941 10942 10942 10941 10942 10942 10941 10941 10941 10941 10941 10941 10941 10942 10943 10944 10945 10946 10947 10946 10946 10946 10946 10946 10947 10947 10947 10948 10947 10947 10948 10947 10946 10946 10946 10945 10944 10943 10943 10942 10942 10942 10942 10942 10942 10941 10941 10941 10940 10940 10940 10939 10939 10938 10937 10935 10934 10933 10932 10930 10929 10928 10926 10924 10923 10922 10921
10909 10910 10912 10913 10915 10918 10921 10923 10925 10927 10928 10930 10931 10933 10934 10935 10935 10936 10936 10937 10937 10936 10936 10937 10936 10936 10936 10936 10936 10936 10936 10937 10938 10939 10940 10941 10941 10941 10941 10941 10941 10941 10941 10941 10941 10942 10942 10942 10942 10941 10941 10941 10941 10941 10940 10940 10940 10939 10938 10938 10938 10938 10937 10937 10936 10936 10935 10935 10935 10935 10934 10933 10932 10930 10928 10928 10927 10925 10924 10922 10921 10920 10918 10917 10915
10903 10904 10905 10907 10910 10913 10916 10918 10920 10922 10923 10925 10926 10927 10928 10929 10930 10931 10931 10932 10932 10931 10931 10931 10931 10931 10930 10930 10931 10931 10931 10932 10933 10934 10934 10935 10935 10936 10936 10936 10936 10936 10935 10935 10936 10937 10937 10937 10937 10937 10937 10937 10937 10937 10937 10937 10936 10935 10935 10934 10934 10933 10933 10932 10932 10931 10931 10930 10930 10929 10928 10927 10926 10924 10922 10921 10920 10919 10918 10917 10916 10915 10913 10912 10910
10896 10898 10899 10902 10905 10908 10910 10913 10915 10916 10918 10919 10921 10922 10923 10924 10925 10925 10926 10926 10926 10926 10926 10926 10926 10925 10925 10925 10926 10926 10926 10926 10927 10928 10929 10929 10929 10930 10930 10930 10930 10929 10929 10930 10931 10932 10932 10932 10932 10932 10933 10933 10933 10933 10933 10933 10932 10931 10931 10930 10929 10929 10928 10927 10927 10927 10926 10925 10925 10923 10922 10921 10920 10918 10917 10916 10915 10914 10912 10911 10910 10909 10908 10907 10905
10890 10891 10894 10897 10900 10903 10905 10908 10910 10911 10913 10914 10915 10916 10917 10918 10919 10920 10920 10921 10921 10920 10920 10920 10920 10920 10920 10920 10921 10920 10920 10921 10922 10923 10923 10922 10922 10924 10924 10924 10924 10924 10924 10925 10926 10927 10927 10926 10926 10927 10928 10928 10928 10928 10929 10928 10926 10926 10926 10925 10924 10924 10923 10923 10922 10921 10920 10919 10919 10918 10916 10915 10914 10913 10912 10911 10910 10908 10907 10906 10904 10903 10902 10901 10900
10883 10885 10888 10892 10895 10898 10900 10903 10904 10906 10907 10909 10910 10910 10911 10913 10914 10914 10915 10915 10915 10915 10915 10914 10915 10914 10914 10915 10915 10915 10915 10916 10916 10916 10917 10917 10917 10917 10917 10918 10918 10918 10918 10920 10921 10921 10920 10920 10920 10921 10922 10922 10922 10922 10923 10922 10920 10920 10920 10920 10920 10919 10919 10917 10916 10915 10914 10914 10913 10912 10910 10909 10908 10907 10906 10905 10904 10903 10901 10900 10899 10898 10897 10896 10894
10877 10880 10884 10887 10890 10893 10896 10898 10899 10900 10902 10903 10903 10904 10905 10907 10907 10908 10908 10908 10909 10909 10909 10908 10909 10909 10909 10910 10910 10909 10909 10910 10910 10910 10911 10911 10911 10911 10910 10911 10912 10912 10912 10914 10915 10914 10914 10914 10914 10914 10915 10916 10915 10916 10916 10916 10914 10914 10915 10915 10915 10914 10913 10912 10910 10910 10909 10908 10907 10906 10905 10903 10902 10900 10899 10898 10897 10897 10896 10894 10893 10892 10891 10890 10888
10873 10876 10879 10883 10886 10888 10891 10893 10893 10893 10895 10896 10897 10897 10899 10900 10901 10901 10901 10902 10902 10903 10902 10902 10903 10903 10903 10905 10904 10903 10902 10903 10904 10904 10904 10904 10904 10904 10904 10904 10905 10906 10906 10907 10908 10907 10908 10908 10908 10908 10908 10909 10908 10908 10909 10910 10909 10909 10910 10910 10909 10908 10907 10906 10905 10905 10904 10902 10901 10901 10899 10897 10895 10894 10893 10892 10891 10891 10890 10889 10887 10886 10885 10883 10882
10869 10872 10876 10880 10882 10883 10885 10886 10886 10886 10888 10888 10888 10890 10892 10893 10894 10894 10895 10895 10896 10897 10897 10896 10896 10896 10897 10899 10899 10897 10897 10897 10898 10898 10898 10898 10898 10899 10899 10898 10898 10899 10900 10901 10901 10902 10902 10902 10902 10902 10902 10902 10901 10901 10902 10903 10904 10903 10904 10903 10902 10902 10901 10900 10900 10899 10898 10896 10896 10895 10893 10891 10890 10888 10887 10886 10886 10885 10884 10883 10882 10880 10879 10877 10875
10865 10869 10874 10876 10876 10877 10877 10877 10877 10878 10880 10880 10880 10881 10884 10886 10887 10888 10889 10889 10890 10890 10891 10890 10890 10890 10891 10892 10893 10892 10891 10891 10892 10893 10892 10892 10893 10893 10893 10893 10893 10893 10894 10894 10894 10895 10896 10896 10896 10896 10895 10895 10895 10895 10896 10896 10896 10896 10896 10896 10896 10895 10895 10894 10894 10894 10892 10891 10891 10890 10888 10886 10885 10883 10882 10881 10880 10879 10878 10876 10875 10874 10872 10870 10869
10861 10866 10871 10871 10870 10868 10867 10867 10868 10870 10871 10871 10872 10874 10876 10879 10881 10881 10882 10883 10884 10884 10884 10884 10884 10885 10885 10886 10887 10887 10886 10886 10887 10887 10887 10887 10888 10888 10888 10887 10887 10887 10887 10888 10888 10888 10888 10889 10889 10889 10889 10889 10889 10889 10889 10890 10889 10889 10889 10889 10889 10889 10888 10887 10887 10888 10887 10886 10885 10883 10881 10880 10879 10878 10876 10875 10874 10873 10871 10870 10868 10867 10865 10863 10861
10856 10862 10865 10866 10866 10863 10859 10855 10856 10859 10861 10862 10863 10866 10870 10872 10874 10875 10875 10876 10877 10877 10877 10878 10879 10880 10880 10880 10880 10880 10879 10879 10880 10881 10882 10882 10882 10883 10883 10882 10882 10881 10881 10881 10881 10881 10882 10882 10882 10882 10882 10883 10883 10882 10883 10883 10883 10883 10882 10881 10881 10881 10881 10881 10880 10880 10880 10879 10878 10876 10875 10874 10874 10873 10871 10869 10868 10867 10865 10864 10862 10861 10859 10856 10854
10850 10854 10856 10860 10866 10866 10860 10851 10846 10847 10851 10854 10857 10860 10863 10865 10868 10869 10868 10868 10869 10870 10871 10872 10874 10874 10874 10874 10874 10874 10873 10873 10873 10874 10876 10876 10876 10877 10877 10877 10876 10875 10875 10875 10875 10875 10875 10875 10875 10875 10876 10876 10876 10875 10875 10876 10876 10876 10875 10874 10874 10874 10874 10873 10872 10872 10872 10872 10871 10870 10869 10868 10868 10867 10865 10863 10862 10860 10859 10857 10855 10853 10851 10849 10846
10843 10847 10850 10856 10861 10862 10856 10847 10840 10840 10844 10849 10852 10855 10856 10858 10860 10861 10860 10861 10863 10865 10865 10866 10866 10866 10867 10868 10868 10868 10868 10868 10868 10869 10869 10870 10871 10871 10870 10870 10870 10869 10869 10869 10869 10869 10869 10869 10868 10868 10868 10868 10868 10868 10868 10868 10869 10869 10868 10868 10868 10868 10867 10866 10865 10865 10865 10865 10864 10864 10863 10862 10861 10859 10857 10856 10854 10853 10851 10849 10847 10845 10843 10841 10838
10834 10838 10843 10847 10849 10846 10841 10838 10835 10836 10839 10843 10846 10848 10849 10850 10851 10853 10853 10854 10857 10858 10858 10859 10859 10860 10861 10861 10862 10862 10863 10863 10863 10863 10863 10863 10864 10864 10864 10864 10863 10863 10863 10863 10862 10862 10862 10862 10862 10861 10861 10861 10862 10862 10862 10862 10862 10862 10862 10861 10861 10861 10860 10860 10859 10858 10858 10858 10858 10857 10855 10853 10852 10851 10849 10848 10846 10844 10843 10841 10839 10837 10835 10833 10831
10823 10827 10831 10835 10835 10832 10830 10830 10831 10832 10834 10836 10838 10840 10841 10841 10843 10845 10847 10848 10850 10851 10851 10853 10853 10853 10854 10854 10855 10856 10856 10857 10857 10857 10857 10857 10857 10858 10858 10858 10857 10857 10857 10857 10856 10856 10856 10856 10856 10855 10855 10855 10855 10855 10855 10855 10855 10855 10854 10854 10854 10854 10854 10854 10853 10852 10851 10851 10851 10849 10846 10845 10844 10843 10842 10840 10838 10836 10835 10833 10831 10829 10827 10824 10822
10814 10817 10820 10823 10824 10823 10823 10823 10825 10826 10828 10829 10830 10832 10833 10835 10837 10839 10840 10841 10842 10843 10844 10845 10846 10846 10847 10848 10848 10849 10850 10850 10850 10849 10850 10850 10850 10851 10851 10851 10851 10851 10851 10850 10850 10850 10850 10850 10849 10849 10849 10848 10848 10848 10848 10847 10847 10847 10847 10847 10847 10846 10846 10846 10846 10845 10844 10843 10842 10841 10838 10837 10836 10835 10834 10832 10830 10829 10827 10825 10824 10822 10820 10817 10814
10805 10807 10811 10814 10815 10815 10814 10815 10817 10819 10821 10822 10823 10824 10826 10829 10831 10832 10832 10833 10834 10835 10836 10837 10838 10839 10840 10841 10841 10842 10843 10843 10842 10842 10843 10843 10843 10844 10844 10844 10844 10844 10844 10844 10844 10844 10844 10843 10843 10842 10842 10842 10841 10841 10841 10841 10840 10840 10840 10840 10840 10839 10839 10839 10838 10838 10836 10835 10834 10832 10830 10829 10828 10827 10826 10824 10823 10821 10819 10817 10815 10813 10811 10808 10805
10800 10801 10803 10806 10807 10807 10806 10808 10809 10811 10814 10816 10816 10817 10819 10822 10823 10824 10825 10826 10827 10828 10828 10829 10830 10831 10832 10833 10833 10834 10834 10834 10835 10835 10836 10836 10836 10837 10837 10837 10837 10837 10837 10837 10837 10837 10837 10836 10836 10835 10835 10835 10834 10834 10834 10834 10834 10833 10833 10833 10833 10832 10832 10831 10830 10829 10827 10826 10825 10824 10822 10821 10820 10819 10817 10816 10814 10811 10809 10808 10806 10804 10801 10798 10795
10794 10795 10796 10797 10798 10798 10798 10800 10801 10803 10806 10809 10810 10810 10811 10813 10815 10817 10818 10818 10819 10820 10821 10822 10822 10823 10823 10824 10825 10825 10826 10827 10827 10828 10828 10828 10828 10829 10829 10830 10830 10830 10830 10830 10830 10829 10829 10829 10829 10828 10828 10828 10827 10827 10827 10826 10826 10826 10825 10825 10824 10824 10823 10822 10821 10820 10818 10817 10816 10815 10814 10813 10811 10810 10809 10807 10805 10802 10800 10798 10796 10794 10791 10788 10784
10782 10784 10786 10787 10788 10788 10790 10791 10792 10794 10797 10800 10802 10802 10803 10805 10807 10809 10810 10811 10812 10813 10813 10814 10815 10815 10815 10816 10817 10817 10818 10818 10818 10819 10819 10819 10820 10821 10821 10822 10822 10822 10822 10822 10822 10822 10822 10821 10821 10820 10820 10820 10820 10819 10819 10818 10818 10817 10817 10817 10816 10815 10814 10813 10812 10811 10810 10809 10807 10806 10806 10804 10803 10801 10799 10798 10795 10792 10790 10787 10785 10783 10780 10776 10773
10770 10772 10775 10778 10780 10781 10782 10783 10783 10785 10788 10791 10793 10794 10795 10797 10799 10800 10801 10802 10804 10804 10805 10806 10807 10807 10807 10808 10809 10809 10809 10809 10809 10810 10810 10811 10812 10812 10813 10813 10813 10814 10814 10814 10814 10814 10814 10813 10813 10813 10812 10812 10811 10811 10810 10809 10809 10809 10808 10808 10807 10806 10806 10805 10803 10802 10801 10799 10798 10797 10796 10795 10793 10791 10789 10787 10785 10782 10779 10776 10773 10771 10769 10765 10762
10760 10761 10764 10768 10771 10773 10774 10775 10775 10776 10779 10782 10784 10786 10787 10789 10790 10791 10792 10793 10794 10795 10796 10797 10798 10799 10799 10800 10800 10801 10801 10801 10801 10801 10802 10802 10803 10803 10804 10805 10805 10805 10806 10806 10806 10805 10805 10805 10805 10804 10804 10803 10803 10802 10801 10801 10800 10800 10799 10798 10798 10797 10796 10795 10794 10793 10791 10790 10788 10787 10786 10784 10782 10780 10778 10776 10774 10771 10768 10765 10762 10760 10758 10754 10751
10750 10751 10754 10757 10760 10763 10765 10766 10767 10767 10769 10772 10775 10777 10778 10779 10780 10781 10782 10783 10784 10785 10787 10788 10788 10790 10790 10791 10791 10792 10792 10792 10792 10793 10793 10793 10794 10795 10795 10796 10796 10796 10797 10797 10797 10797 10796 10796 10796 10796 10795 10795 10794 10793 10792 10791 10791 10790 10789 10788 10788 10787 10785 10784 10783 10782 10780 10779 10778 10776 10774 10773 10771 10768 10766 10765 10763 10760 10758 10755 10752 10749 10746 10743 10740
10738 10741 10744 10747 10750 10752 10755 10757 10758 10759 10761 10763 10766 10768 10769 10770 10771 10772 10773 10774 10774 10776 10777 10778 10779 10780 10781 10782 10782 10783 10783 10783 10783 10784 10784 10785 10785 10785 10786 10787 10787 10787 10787 10787 10787 10787 10787 10787 10786 10786 10786 10785 10784 10783 10782 10781 10781 10780 10779 10778 10777 10776 10775 10774 10773 10771 10770 10768 10767 10765 10763 10761 10759 10758 10756 10754 10751 10749 10747 10744 10741 10738 10735 10732 10729
10728 10731 10734 10737 10740 10742 10745 10747 10749 10751 10752 10754 10756 10758 10760 10761 10762 10763 10763 10764 10765 10766 10767 10768 10769 10770 10771 10772 10773 10773 10774 10774 10774 10775 10775 10776 10775 10776 10777 10777 10777 10777 10777 10777 10777 10777 10777 10776 10776 10775 10775 10775 10774 10773 10772 10771 10770 10769 10769 10768 10767 10766 10764 10763 10762 10761 10760 10758 10757 10755 10753 10751 10749 10747 10745 10743 10740 10738 10735 10733 10730 10727 10724 10721 10718
10719 10722 10725 10728 10731 10733 10735 10737 10739 10741 10743 10745 10747 10749 10750 10752 10753 10754 10754 10755 10755 10756 10757 10758 10759 10760 10761 10762 10763 10764 10764 10765 10765 10766 10767 10767 10767 10767 10768 10768 10767 10767 10767 10767 10767 10766 10766 10765 10765 10764 10764 10764 10763 10762 10762 10761 10760 10759 10758 10758 10757 10755 10754 10753 10752 10751 10749 10748 10746 10744 10742 10740 10738 10736 10734 10731 10728 10726 10724 10721 10719 10716 10713 10710 10707